Weather History for Preston, MN

Change the Weather History Date:

Friday, October 5, 2012

  Actual Average (KRST) Record (KRST)
Temperature  
Mean Temperature 44 °F 53 °F  
Max Temperature 50 °F 63 °F 85 °F (1938)
Min Temperature 37 °F 42 °F 20 °F (1935)
Degree Days  
Heating Degree Days 22 13  
Month to date heating degree days 60  
Since 1 July heating degree days 275  
Cooling Degree Days 0 0  
Month to date cooling degree days 4  
Year to date cooling degree days 583  
Moisture  
Dew Point 24 °F    
Average Humidity 48    
Maximum Humidity 72    
Minimum Humidity 29    
Precipitation  
Precipitation 0.00 in 0.09 in 1.05 in (1913)
Month to date precipitation 0.48  
Year to date precipitation 28.12  
Snow  
Snow 0.00 in 0.00 in 0.20 in (1991)
Month to date snowfall 0.0  
Since 1 July snowfall 0.0  
Since 1 September snowfall 0.0  
Snow Depth -    
Sea Level Pressure  
Sea Level Pressure 30.14 in    
Wind  
Wind Speed 15 mph (WNW)    
Max Wind Speed 25 mph    
Max Gust Speed 32 mph    
Visibility 10 miles    
Events      
T = Trace of Precipitation, MM = Missing Value Source: NWS Daily Summary

Daily Weather History Graph

Daily Weather History Graph

Search for Another Location

Airport:

Trip Planner

Search our weather history database for the weather conditions in past years. The results will help you decide how hot, cold, wet, or windy it might be!

Date:

Astronomy

Oct. 05, 2012 Rise Set
Actual Time 7:11 AM CDT 6:41 PM CDT
Civil Twilight 6:42 AM CDT 7:10 PM CDT
Nautical Twilight 6:09 AM CDT 7:43 PM CDT
Astronomical Twilight 5:36 AM CDT 8:16 PM CDT
Moon 9:56 PM CDT (10/5) 12:28 PM CDT (10/5)
Length of Visible Light 12h 27m
Length of Day
11h 30m
Waning Gibbous, 74% of the Moon is Illuminated
Oct 5
Waning Gibbous
Oct 8
Last Quarter
Oct 15
New
Oct 21
First Quarter
Oct 29
Full

Hourly Weather History & Observations

Time (CDT) Temp. Windchill Dew Point Humidity Pressure Visibility Wind Dir Wind Speed Gust Speed Precip Events Conditions
12:10 AM 41.9 °F 36.3 °F 28.4 °F 59% 30.16 in 10.0 mi West 9.2 mph - N/A   Clear
12:31 AM 41.2 °F 35.0 °F 29.3 °F 63% 30.16 in 10.0 mi West 10.4 mph - N/A   Clear
12:50 AM 40.6 °F 32.7 °F 29.7 °F 65% 30.17 in 10.0 mi West 15.0 mph 19.6 mph N/A   Clear
1:10 AM 41.5 °F 34.6 °F 29.3 °F 62% 30.17 in 10.0 mi West 12.7 mph 18.4 mph N/A   Clear
1:30 AM 41.0 °F 33.1 °F 29.5 °F 64% 30.17 in 10.0 mi WNW 15.0 mph 19.6 mph N/A   Clear
1:50 AM 41.0 °F 33.9 °F 29.8 °F 64% 30.18 in 10.0 mi WNW 12.7 mph 18.4 mph N/A   Clear
2:10 AM 41.0 °F 33.5 °F 29.8 °F 64% 30.17 in 10.0 mi WNW 13.8 mph 19.6 mph N/A   Clear
2:30 AM 39.4 °F 33.2 °F 29.8 °F 69% 30.16 in 10.0 mi West 9.2 mph - N/A   Clear
3:10 AM 40.1 °F 32.7 °F 30.0 °F 67% 30.16 in 10.0 mi WNW 12.7 mph - N/A   Clear
3:30 AM 39.6 °F 32.1 °F 30.0 °F 69% 30.16 in 10.0 mi West 12.7 mph - N/A   Clear
3:50 AM 39.6 °F 31.7 °F 29.8 °F 68% 30.16 in 10.0 mi WNW 13.8 mph 20.7 mph N/A   Clear
4:10 AM 38.7 °F 31.4 °F 29.3 °F 69% 30.16 in 10.0 mi WNW 11.5 mph - N/A   Clear
4:30 AM 37.6 °F 30.0 °F 29.1 °F 72% 30.15 in 10.0 mi WNW 11.5 mph - N/A   Clear
4:50 AM 37.8 °F 30.2 °F 29.1 °F 71% 30.14 in 10.0 mi NW 11.5 mph - N/A   Clear
5:10 AM 37.8 °F 30.7 °F 28.9 °F 71% 30.14 in 10.0 mi WNW 10.4 mph - N/A   Clear
5:30 AM 37.4 °F 29.8 °F 29.1 °F 72% 30.15 in 10.0 mi WNW 11.5 mph - N/A   Clear
5:50 AM 37.6 °F 31.0 °F 28.6 °F 70% 30.15 in 10.0 mi WNW 9.2 mph - N/A   Clear
6:10 AM 37.4 °F 30.3 °F 28.6 °F 70% 30.14 in 10.0 mi WNW 10.4 mph - N/A   Clear
6:30 AM 37.4 °F 29.8 °F 28.4 °F 70% 30.15 in 10.0 mi WNW 11.5 mph - N/A   Clear
6:50 AM 38.3 °F 29.7 °F 26.8 °F 63% 30.14 in 10.0 mi WNW 15.0 mph - N/A   Clear
7:10 AM 38.3 °F 31.4 °F 25.7 °F 61% 30.15 in 10.0 mi WNW 10.4 mph 19.6 mph N/A   Clear
7:30 AM 38.3 °F 30.1 °F 25.5 °F 60% 30.15 in 10.0 mi WNW 13.8 mph 19.6 mph N/A   Clear
7:50 AM 38.3 °F 30.5 °F 25.7 °F 61% 30.15 in 10.0 mi WNW 12.7 mph 19.6 mph N/A   Clear
8:10 AM 38.5 °F 31.1 °F 26.1 °F 61% 30.15 in 10.0 mi West 11.5 mph 17.3 mph N/A   Clear
8:30 AM 40.1 °F 32.0 °F 25.7 °F 56% 30.16 in 10.0 mi WNW 15.0 mph 18.4 mph N/A   Clear
8:50 AM 40.3 °F 33.4 °F 24.6 °F 54% 30.16 in 10.0 mi WNW 11.5 mph 23.0 mph N/A   Clear
9:30 AM 41.2 °F 33.0 °F 23.9 °F 50% 30.17 in 10.0 mi WNW 16.1 mph - N/A   Clear
9:50 AM 41.5 °F 32.4 °F 23.7 °F 49% 30.16 in 10.0 mi WNW 20.7 mph 25.3 mph N/A   Clear
10:10 AM 42.3 °F 33.6 °F 22.8 °F 46% 30.16 in 10.0 mi WNW 19.6 mph 26.5 mph N/A   Clear
10:30 AM 42.4 °F 34.1 °F 22.6 °F 46% 30.16 in 10.0 mi WNW 18.4 mph - N/A   Clear
10:51 AM 43.5 °F 36.1 °F 20.1 °F 39% 30.16 in 10.0 mi WNW 16.1 mph 26.5 mph N/A   Clear
11:10 AM 44.1 °F 35.7 °F 20.1 °F 39% 30.16 in 10.0 mi WNW 20.7 mph 26.5 mph N/A   Clear
11:30 AM 44.8 °F 37.4 °F 20.7 °F 38% 30.15 in 10.0 mi WNW 17.3 mph 23.0 mph N/A   Clear
11:50 AM 46.6 °F - 20.8 °F 36% 30.14 in 10.0 mi WNW 17.3 mph 23.0 mph N/A   Clear
12:10 PM 46.0 °F 39.6 °F 21.2 °F 37% 30.15 in 10.0 mi West 15.0 mph 21.9 mph N/A   Clear
12:30 PM 47.8 °F - 21.4 °F 35% 30.13 in 10.0 mi West 19.6 mph 24.2 mph N/A   Clear
12:50 PM 48.4 °F - 21.0 °F 34% 30.13 in 10.0 mi WNW 23.0 mph 27.6 mph N/A   Clear
1:10 PM 49.6 °F - 20.8 °F 32% 30.12 in 10.0 mi NW 19.6 mph 25.3 mph N/A   Clear
1:30 PM 49.6 °F - 19.0 °F 30% 30.12 in 10.0 mi WNW 18.4 mph 27.6 mph N/A   Clear
1:51 PM 50.2 °F - 19.2 °F 29% 30.10 in 10.0 mi WNW 19.6 mph 31.1 mph N/A   Clear
2:10 PM 49.1 °F - 19.2 °F 31% 30.10 in 10.0 mi WNW 18.4 mph 28.8 mph N/A   Clear
2:30 PM 50.9 °F - 19.2 °F 29% 30.10 in 10.0 mi WNW 15.0 mph 28.8 mph N/A   Clear
2:51 PM 49.5 °F - 19.4 °F 31% 30.11 in 10.0 mi WNW 20.7 mph 31.1 mph N/A   Clear
3:10 PM 48.7 °F - 19.4 °F 31% 30.11 in 10.0 mi WNW 25.3 mph 32.2 mph N/A   Clear
3:30 PM 49.8 °F - 19.9 °F 31% 30.10 in 10.0 mi West 18.4 mph 26.5 mph N/A   Clear
3:50 PM 49.5 °F - 19.6 °F 31% 30.11 in 10.0 mi WNW 21.9 mph 29.9 mph N/A   Clear
4:10 PM 49.8 °F - 19.8 °F 31% 30.10 in 10.0 mi WNW 20.7 mph 29.9 mph N/A   Clear
4:30 PM 49.8 °F - 19.0 °F 30% 30.11 in 10.0 mi WNW 25.3 mph 32.2 mph N/A   Clear
4:50 PM 50.0 °F - 19.4 °F 30% 30.10 in 10.0 mi West 23.0 mph 27.6 mph N/A   Clear
5:10 PM 49.6 °F - 20.1 °F 31% 30.09 in 10.0 mi WNW 23.0 mph 27.6 mph N/A   Clear
5:30 PM 49.1 °F - 21.0 °F 33% 30.10 in 10.0 mi WNW 21.9 mph 25.3 mph N/A   Scattered Clouds
5:51 PM 48.2 °F - 21.2 °F 34% 30.09 in 10.0 mi WNW 19.6 mph 28.8 mph N/A   Clear
6:10 PM 47.3 °F - 21.6 °F 36% 30.09 in 10.0 mi WNW 19.6 mph 23.0 mph N/A   Scattered Clouds
6:30 PM 46.6 °F - 21.6 °F 37% 30.10 in 10.0 mi NW 21.9 mph 28.8 mph N/A   Scattered Clouds
6:51 PM 45.9 °F 38.3 °F 21.9 °F 39% 30.11 in 10.0 mi NW 19.6 mph 27.6 mph N/A   Mostly Cloudy
7:10 PM 45.0 °F 36.4 °F 22.1 °F 40% 30.12 in 10.0 mi NW 23.0 mph 28.8 mph N/A   Scattered Clouds
7:30 PM 45.5 °F 38.3 °F 22.5 °F 40% 30.12 in 10.0 mi NW 17.3 mph 25.3 mph N/A   Mostly Cloudy
7:50 PM 44.2 °F 35.9 °F 22.6 °F 42% 30.13 in 10.0 mi NW 20.7 mph 25.3 mph N/A   Overcast
8:10 PM 43.7 °F 36.0 °F 22.8 °F 44% 30.13 in 10.0 mi NW 17.3 mph 23.0 mph N/A   Overcast
8:30 PM 43.7 °F 35.4 °F 22.6 °F 43% 30.14 in 10.0 mi NW 19.6 mph 28.8 mph N/A   Overcast
8:50 PM 43.7 °F 36.3 °F 22.8 °F 44% 30.14 in 10.0 mi NW 16.1 mph 25.3 mph N/A   Overcast
9:10 PM 42.8 °F 34.5 °F 23.2 °F 46% 30.14 in 10.0 mi NW 18.4 mph 27.6 mph N/A   Overcast
9:30 PM 42.3 °F 32.4 °F 22.8 °F 46% 30.14 in 10.0 mi NW 25.3 mph 29.9 mph N/A   Overcast
9:50 PM 42.1 °F 33.6 °F 22.8 °F 46% 30.14 in 10.0 mi NW 18.4 mph 26.5 mph N/A   Overcast
10:10 PM 41.9 °F 34.3 °F 23.0 °F 47% 30.14 in 10.0 mi NW 15.0 mph - N/A   Overcast
10:30 PM 41.9 °F 33.1 °F 22.8 °F 47% 30.14 in 10.0 mi NW 19.6 mph 25.3 mph N/A   Overcast
10:50 PM 41.9 °F 33.7 °F 23.0 °F 47% 30.14 in 10.0 mi NW 17.3 mph 20.7 mph N/A   Overcast
11:30 PM 41.5 °F 33.5 °F 22.8 °F 47% 30.13 in 10.0 mi WNW 16.1 mph 23.0 mph N/A   Overcast
11:50 PM 41.4 °F 32.4 °F 22.6 °F 47% 30.13 in 10.0 mi WNW 19.6 mph 24.2 mph N/A   Overcast